Weather History for Daytona Beach, FL

Change the Weather History Date:

Sunday, February 23, 2014

  Actual Average Record
Temperature  
Mean Temperature 69 °F 61 °F  
Max Temperature 82 °F 72 °F 87 °F (2013)
Min Temperature 56 °F 51 °F 27 °F (1978)
Degree Days  
Heating Degree Days 0 5  
Month to date heating degree days 97 141  
Since 1 July heating degree days 491 658  
Cooling Degree Days 4 1  
Month to date cooling degree days 55 23  
Year to date cooling degree days 80 52  
Growing Degree Days 18 (Base 50)    
Moisture  
Dew Point 61 °F    
Average Humidity 78    
Maximum Humidity 93    
Minimum Humidity 62    
Precipitation  
Precipitation 0.98 in 0.11 in 1.55 in (2002)
Month to date precipitation 3.41 2.24  
Year to date precipitation 6.18 4.98  
Sea Level Pressure  
Sea Level Pressure 30.05 in    
Wind  
Wind Speed 4 mph (North)    
Max Wind Speed 21 mph    
Max Gust Speed 25 mph    
Visibility 7 miles    
Events Rain , Thunderstorm    
T = Trace of Precipitation, MM = Missing Value Source: NWS Daily Summary

Daily Weather History Graph

Daily Weather History Graph

Search for Another Location

Airport:

Trip Planner

Search our weather history database for the weather conditions in past years. The results will help you decide how hot, cold, wet, or windy it might be!

Date:

Astronomy

Feb. 23, 2014 Rise Set
Actual Time 6:55 AM EST 6:19 PM EST
Civil Twilight 6:31 AM EST 6:43 PM EST
Nautical Twilight 6:04 AM EST 7:11 PM EST
Astronomical Twilight 5:36 AM EST 7:38 PM EST
Moon 1:39 AM EST (2/23) 12:34 PM EST (2/23)
Length of Visible Light 12h 12m
Length of Day
11h 24m
Last Quarter, 39% of the Moon is Illuminated
Feb 23
Last Quarter
Mar 1
New
Mar 8
First Quarter
Mar 16
Full
Mar 23
Last Quarter

Hourly Weather History & Observations

Time (EST) Temp. Heat Index Dew Point Humidity Pressure Visibility Wind Dir Wind Speed Gust Speed Precip Events Conditions
12:53 AM 57.0 °F - 55.0 °F 93% 30.08 in 8.0 mi Calm Calm - N/A   Scattered Clouds
1:53 AM 55.9 °F - 54.0 °F 93% 30.08 in 10.0 mi WSW 3.5 mph - N/A   Partly Cloudy
2:53 AM 57.0 °F - 54.0 °F 89% 30.06 in 10.0 mi Calm Calm - N/A   Scattered Clouds
3:53 AM 57.0 °F - 54.0 °F 89% 30.05 in 10.0 mi West 3.5 mph - N/A   Mostly Cloudy
4:53 AM 57.0 °F - 55.0 °F 93% 30.06 in 10.0 mi Calm Calm - N/A   Mostly Cloudy
5:53 AM 57.0 °F - 55.0 °F 93% 30.07 in 10.0 mi Calm Calm - N/A   Mostly Cloudy
6:53 AM 57.0 °F - 55.0 °F 93% 30.08 in 10.0 mi Calm Calm - N/A   Scattered Clouds
7:53 AM 61.0 °F - 57.9 °F 90% 30.09 in 10.0 mi Calm Calm - N/A   Partly Cloudy
8:09 AM 62.1 °F - 57.9 °F 86% 30.09 in 10.0 mi Calm Calm - N/A   Partly Cloudy
8:53 AM 64.9 °F - 61.0 °F 87% 30.09 in 10.0 mi WSW 3.5 mph - N/A   Scattered Clouds
9:53 AM 70.0 °F - 63.0 °F 78% 30.10 in 10.0 mi Variable 3.5 mph - N/A   Mostly Cloudy
10:53 AM 73.0 °F - 64.0 °F 73% 30.10 in 10.0 mi Calm Calm - N/A   Mostly Cloudy
11:53 AM 75.9 °F - 64.9 °F 69% 30.08 in 10.0 mi SSW 6.9 mph - N/A   Mostly Cloudy
12:53 PM 80.1 °F 82.1 °F 66.0 °F 62% 30.05 in 10.0 mi Calm Calm - N/A   Mostly Cloudy
1:53 PM 73.9 °F - 64.9 °F 73% 30.03 in 10.0 mi ENE 11.5 mph - N/A   Overcast
2:11 PM 72.0 °F - 64.0 °F 76% 30.02 in 9.0 mi ENE 10.4 mph - 0.00 in Rain , Thunderstorm Light Thunderstorms and Rain
2:39 PM 68.0 °F - 64.0 °F 87% 30.02 in 2.0 mi NE 15.0 mph - 0.02 in Rain , Thunderstorm Heavy Thunderstorms and Rain
2:44 PM 66.9 °F - 64.0 °F 90% 30.02 in 1.0 mi NE 15.0 mph - 0.08 in Rain , Thunderstorm Heavy Thunderstorms and Rain
2:53 PM 66.9 °F - 64.0 °F 90% 30.02 in 1.0 mi NE 10.4 mph - 0.12 in Rain , Thunderstorm Light Thunderstorms and Rain
3:08 PM 66.9 °F - 64.0 °F 90% 30.03 in 2.0 mi North 15.0 mph - 0.02 in Rain , Thunderstorm Light Thunderstorms and Rain
3:12 PM 66.9 °F - 64.0 °F 90% 30.03 in 1.0 mi North 17.3 mph - 0.07 in Rain , Thunderstorm Heavy Thunderstorms and Rain
3:17 PM 66.0 °F - 64.0 °F 93% 30.04 in 0.8 mi North 20.7 mph - 0.17 in Rain , Thunderstorm Heavy Thunderstorms and Rain
3:20 PM 66.0 °F - 64.0 °F 93% 30.04 in 0.2 mi North 15.0 mph - 0.38 in Rain , Thunderstorm Heavy Thunderstorms and Rain
3:38 PM 66.9 °F - 64.0 °F 90% 30.04 in 0.2 mi North 10.4 mph - 0.66 in Rain , Thunderstorm Light Thunderstorms and Rain
3:53 PM 66.0 °F - 64.0 °F 93% 30.03 in 2.0 mi North 13.8 mph 24.2 mph 0.75 in Rain , Thunderstorm Heavy Thunderstorms and Rain
4:12 PM 66.0 °F - 63.0 °F 90% 30.02 in 2.0 mi NNE 11.5 mph - 0.05 in Rain Light Rain
4:17 PM 66.0 °F - 63.0 °F 90% 30.02 in 7.0 mi NNE 11.5 mph - 0.06 in Rain Light Rain
4:42 PM 66.0 °F - 63.0 °F 90% 30.05 in 9.0 mi North 12.7 mph - 0.06 in Rain Light Rain
4:53 PM 64.9 °F - 63.0 °F 93% 30.04 in 10.0 mi North 6.9 mph - 0.06 in Rain Light Rain
5:00 PM 66.0 °F - 62.1 °F 87% 30.05 in 8.0 mi NNE 8.1 mph - 0.00 in Rain Light Rain
5:23 PM 66.0 °F - 63.0 °F 90% 30.05 in 9.0 mi North 6.9 mph - 0.01 in Rain Light Rain
5:36 PM 64.9 °F - 63.0 °F 93% 30.05 in 4.0 mi North 9.2 mph - 0.02 in Rain Rain
5:53 PM 64.9 °F - 63.0 °F 93% 30.07 in 4.0 mi North 6.9 mph - 0.04 in Rain Light Rain
6:18 PM 64.9 °F - 62.1 °F 90% 30.08 in 6.0 mi NNW 5.8 mph - 0.00 in Rain Light Rain
6:53 PM 64.9 °F - 62.1 °F 90% 30.06 in 9.0 mi North 8.1 mph - 0.01 in   Overcast
7:33 PM 64.0 °F - 61.0 °F 90% 30.06 in 9.0 mi NE 4.6 mph - N/A   Mostly Cloudy
7:53 PM 64.0 °F - 61.0 °F 90% 30.06 in 8.0 mi North 6.9 mph - N/A   Scattered Clouds
8:53 PM 64.0 °F - 61.0 °F 90% 30.05 in 8.0 mi North 4.6 mph - N/A   Partly Cloudy
9:53 PM 62.1 °F - 61.0 °F 96% 30.06 in 6.0 mi SW 3.5 mph - N/A   Mostly Cloudy
10:53 PM 62.1 °F - 61.0 °F 96% 30.06 in 7.0 mi Calm Calm - N/A   Overcast
11:53 PM 62.1 °F - 60.1 °F 93% 30.04 in 6.0 mi WSW 3.5 mph - N/A   Overcast